TimeCDT,TemperatureF,Dew PointF,Humidity,Sea Level PressureIn,VisibilityMPH,Wind Direction,Wind SpeedMPH,Gust SpeedMPH,PrecipitationIn,Events,Conditions,WindDirDegrees,DateUTC
12:53 AM,82.0,69.1,65,29.84,10.0,SSE,5.8,-,N/A,,Clear,160,2013-07-23 05:53:00
1:53 AM,80.1,69.1,69,29.83,10.0,SSE,4.6,-,N/A,,Clear,150,2013-07-23 06:53:00
2:53 AM,79.0,69.1,72,29.81,10.0,South,8.1,-,N/A,,Clear,180,2013-07-23 07:53:00
3:53 AM,78.1,69.1,74,29.80,10.0,South,8.1,-,N/A,,Clear,190,2013-07-23 08:53:00
4:53 AM,79.0,68.0,69,29.81,10.0,South,6.9,-,N/A,,Clear,190,2013-07-23 09:53:00
5:53 AM,78.1,68.0,71,29.82,10.0,South,6.9,-,N/A,,Clear,190,2013-07-23 10:53:00
6:53 AM,78.1,68.0,71,29.83,10.0,SSW,6.9,-,N/A,,Clear,200,2013-07-23 11:53:00
7:53 AM,81.0,69.1,67,29.85,10.0,SSW,10.4,-,N/A,,Clear,210,2013-07-23 12:53:00
8:53 AM,84.9,69.1,59,29.86,10.0,SW,12.7,-,N/A,,Clear,220,2013-07-23 13:53:00
9:53 AM,88.0,70.0,55,29.86,10.0,SSW,13.8,-,N/A,,Clear,210,2013-07-23 14:53:00
10:53 AM,91.0,70.0,50,29.86,10.0,WSW,13.8,21.9,N/A,,Clear,240,2013-07-23 15:53:00
11:53 AM,91.9,70.0,48,29.85,10.0,SSW,10.4,-,N/A,,Clear,210,2013-07-23 16:53:00
12:53 PM,95.0,70.0,44,29.83,10.0,SSW,13.8,19.6,N/A,,Clear,210,2013-07-23 17:53:00
1:53 PM,96.1,69.1,41,29.82,10.0,SSW,13.8,21.9,N/A,,Clear,200,2013-07-23 18:53:00
2:53 PM,98.1,68.0,37,29.80,10.0,South,17.3,23.0,N/A,,Clear,180,2013-07-23 19:53:00
3:53 PM,97.0,68.0,39,29.78,10.0,SSW,18.4,23.0,N/A,,Partly Cloudy,210,2013-07-23 20:53:00
4:53 PM,100.0,66.9,34,29.76,10.0,SW,16.1,21.9,N/A,,Partly Cloudy,220,2013-07-23 21:53:00
5:53 PM,99.0,66.9,35,29.75,10.0,SSW,15.0,-,N/A,,Unknown,210,2013-07-23 22:53:00
6:53 PM,98.1,66.9,36,29.73,10.0,South,18.4,-,N/A,,Clear,180,2013-07-23 23:53:00
7:53 PM,96.1,66.9,38,29.72,10.0,SSW,13.8,-,N/A,,Clear,200,2013-07-24 00:53:00
8:53 PM,91.9,68.0,45,29.72,10.0,South,10.4,-,N/A,,Clear,190,2013-07-24 01:53:00
9:53 PM,89.1,68.0,50,29.74,10.0,South,5.8,-,N/A,,Clear,180,2013-07-24 02:53:00
10:53 PM,86.0,69.1,57,29.76,10.0,SSE,5.8,-,N/A,,Clear,160,2013-07-24 03:53:00
11:53 PM,84.9,70.0,61,29.75,10.0,South,8.1,-,N/A,,Clear,180,2013-07-24 04:53:00